Starlink 30333

operational
NORAD ID: 57702 Int'l Des: 2023-129 Owner: SPXS Country: US Constellation: starlink
LEOCIRCULAR

About Starlink 30333

Description loading...

Live Position

Loading 3D Globe...

Upcoming Passes

Altitude History

Altitude vs Time

uPlot chart will show altitude changes over time

Two-Line Element Set

1 57702U 23129E 25304.80819647 .00006933 00000-0 52841-3 0 9999
2 57702 43.0039 100.9109 0000971 263.8023 96.2709 15.02492051121267
Epoch: Oct 31, 2025 • Age: 10 hours

Current Status

Altitude 562.0 km
Velocity 7.59 km/s
Sub-Earth Point 38.59°N, 97.43°E
Launch Date Aug 27, 2023
Age 2.1 years
Type internet

Technical Details

Classification Payload
Mass 730.00 kg
Dry Mass 700.00 kg
Total Mass 730.00 kg
Length 0.30 m
Diameter 4.10 m
Span 29.00 m
Shape Box + pan
Manufacturer SPXS
Bus Type Starlink V2M
Phase Status In Orbit
Owner/State SPXS/US

Large Constellations

Loading constellations...